GW4614 Weather Reports


time (UTC)temp
C
wind
direction
speed
KPH
gust
KPH
rain 1hr
cm
rain 24hr
cm
rain mn
cm
humidity
%
barometer
mb
20260510000108 15 195 0.0 0.0 0.00 0.00 0.00 65 1010.3
20260509235604 15 149 0.0 0.0 0.00 0.00 0.00 62 1010.2
20260509235101 15 187 1.6 1.6 0.00 0.00 0.00 63 1010.3
20260509234557 16 214 0.0 1.6 0.00 0.00 0.00 60 1010.2
20260509234055 16 237 0.0 0.0 0.00 0.00 0.00 58 1010.3
20260509233553 16 163 0.0 0.0 0.00 0.00 0.00 55 1010.2
20260509233050 17 189 1.6 3.2 0.00 0.00 0.00 55 1010.2
20260509232546 18 179 0.0 1.6 0.00 0.00 0.00 51 1010.2
20260509232043 18 181 1.6 1.6 0.00 0.00 0.00 51 1010.3
20260509231539 18 135 0.0 0.0 0.00 0.00 0.00 49 1010.0
20260509231037 18 201 0.0 4.8 0.00 0.00 0.00 47 1010.2
20260509230534 19 260 1.6 3.2 0.00 0.00 0.00 50 1010.2
20260509230031 19 322 0.0 3.2 0.00 0.00 0.00 47 1010.1
20260509225526 19 322 3.2 3.2 0.00 0.00 0.00 47 1010.1
20260509225022 20 350 6.4 6.4 0.00 0.00 0.00 45 1010.0
20260509224518 20 320 3.2 6.4 0.00 0.00 0.00 46 1010.0
20260509224014 20 219 3.2 9.7 0.00 0.00 0.00 45 1010.2
20260509223511 20 13 1.6 9.7 0.00 0.00 0.00 43 1010.4
20260509223010 20 314 3.2 3.2 0.00 0.00 0.00 42 1010.2
20260509222505 20 197 0.0 1.6 0.00 0.00 0.00 47 1010.1
20260509222001 20 333 6.4 11.3 0.00 0.00 0.00 45 1010.1
20260509221457 20 312 6.4 11.3 0.00 0.00 0.00 47 1010.1
20260509220953 21 347 0.0 0.0 0.00 0.00 0.00 45 1010.0
20260509220449 21 298 6.4 9.7 0.00 0.00 0.00 42 1010.0
20260509215945 21 152 0.0 3.2 0.00 0.00 0.00 41 1010.0
20260509215441 19 216 1.6 1.6 0.00 0.00 0.00 46 1010.1
20260509214938 19 160 0.0 1.6 0.00 0.00 0.00 48 1010.0
20260509214435 19 324 4.8 6.4 0.00 0.00 0.00 47 1009.9
20260509213932 19 154 0.0 3.2 0.00 0.00 0.00 46 1010.0
20260509213428 20 337 1.6 3.2 0.00 0.00 0.00 47 1009.9
20260509212926 20 64 3.2 3.2 0.00 0.00 0.00 43 1009.9
20260509212423 20 8 4.8 6.4 0.00 0.00 0.00 46 1009.7
20260509211919 20 34 6.4 9.7 0.00 0.00 0.00 45 1009.7
20260509211415 20 349 6.4 6.4 0.00 0.00 0.00 48 1009.8
20260509210911 20 322 4.8 4.8 0.00 0.00 0.00 48 1009.7
20260509210409 20 316 4.8 6.4 0.00 0.00 0.00 49 1009.6
20260509205904 20 320 3.2 4.8 0.00 0.00 0.00 49 1009.6
20260509205403 20 330 6.4 9.7 0.00 0.00 0.00 45 1009.4
20260509204900 19 354 0.0 1.6 0.00 0.00 0.00 45 1009.6
20260509204356 19 330 3.2 4.8 0.00 0.00 0.00 47 1009.5
20260509203853 19 57 0.0 0.0 0.00 0.00 0.00 45 1009.5
20260509203349 19 338 1.6 4.8 0.00 0.00 0.00 46 1009.3
20260509202846 20 264 3.2 3.2 0.00 0.00 0.00 43 1009.4
20260509202342 20 345 4.8 4.8 0.00 0.00 0.00 44 1009.3
20260509201837 20 187 0.0 6.4 0.00 0.00 0.00 45 1009.5
20260509201333 19 40 0.0 4.8 0.00 0.00 0.00 47 1009.4
20260509200830 20 319 0.0 0.0 0.00 0.00 0.00 46 1009.3
20260509200325 20 241 4.8 9.7 0.00 0.00 0.00 47 1009.4
20260509195822 20 37 3.2 6.4 0.00 0.00 0.00 49 1009.3
20260509195322 20 335 3.2 6.4 0.00 0.00 0.00 51 1009.2
20260509194822 20 52 3.2 4.8 0.00 0.00 0.00 52 1009.6
20260509194318 19 57 3.2 3.2 0.00 0.00 0.00 49 1009.4
20260509193815 18 101 6.4 11.3 0.00 0.00 0.00 52 1009.5
20260509193315 19 59 9.7 11.3 0.00 0.00 0.00 52 1009.8
20260509192811 19 105 4.8 4.8 0.00 0.00 0.00 50 1009.7
20260509192307 20 181 0.0 3.2 0.00 0.00 0.00 49 1009.6
20260509191802 19 168 1.6 3.2 0.00 0.00 0.00 48 1009.9
20260509191259 19 169 4.8 12.9 0.00 0.00 0.00 53 1009.9
20260509190755 18 116 1.6 4.8 0.00 0.00 0.00 50 1009.8
20260509190252 19 106 3.2 12.9 0.00 0.00 0.00 55 1009.9
20260509185749 19 195 1.6 9.7 0.00 0.00 0.00 51 1009.9
20260509185245 19 151 1.6 6.4 0.00 0.00 0.00 50 1009.9
20260509184743 20 171 3.2 4.8 0.00 0.00 0.00 48 1009.9
20260509184241 20 211 3.2 3.2 0.00 0.00 0.00 50 1009.9
20260509183737 20 168 4.8 11.3 0.00 0.00 0.00 46 1010.0
20260509183232 20 61 8.0 12.9 0.00 0.00 0.00 50 1010.2
20260509182727 20 231 9.7 12.9 0.00 0.00 0.00 48 1010.1
20260509182226 19 10 4.8 4.8 0.00 0.00 0.00 47 1010.1
20260509181723 20 84 8.0 11.3 0.00 0.00 0.00 49 1010.4
20260509181220 20 179 3.2 9.7 0.00 0.00 0.00 47 1010.3
20260509180717 20 64 0.0 6.4 0.00 0.00 0.00 54 1010.5
20260509180213 20 68 1.6 3.2 0.00 0.00 0.00 48 1010.5
20260509175710 19 154 1.6 11.3 0.00 0.00 0.00 46 1010.5
20260509175206 20 118 0.0 3.2 0.00 0.00 0.00 48 1010.8
20260509174702 19 158 1.6 6.4 0.00 0.00 0.00 49 1010.8
20260509174156 19 33 0.0 4.8 0.00 0.00 0.00 48 1011.1
20260509173653 18 164 0.0 1.6 0.00 0.00 0.00 47 1011.1
20260509173149 18 206 0.0 1.6 0.00 0.00 0.00 50 1011.0
20260509172645 18 11 0.0 4.8 0.00 0.00 0.00 48 1010.6
20260509172142 17 340 4.8 6.4 0.00 0.00 0.00 51 1010.8
20260509171637 18 336 1.6 3.2 0.00 0.00 0.00 52 1011.1
20260509171134 17 312 6.4 6.4 0.00 0.00 0.00 49 1011.0
20260509170631 17 312 6.4 6.4 0.00 0.00 0.00 49 1010.8
20260509170127 17 344 4.8 6.4 0.00 0.00 0.00 51 1010.7
20260509165625 17 35 3.2 3.2 0.00 0.00 0.00 52 1011.1
20260509165121 17 46 1.6 3.2 0.00 0.00 0.00 49 1011.2
20260509164617 18 323 3.2 3.2 0.00 0.00 0.00 54 1011.2
20260509164113 17 324 1.6 3.2 0.00 0.00 0.00 50 1011.3
20260509163611 17 303 9.7 11.3 0.00 0.00 0.00 50 1011.3
20260509163106 17 303 9.7 11.3 0.00 0.00 0.00 50 1011.3
20260509162604 17 207 0.0 1.6 0.00 0.00 0.00 48 1011.2
20260509162059 17 320 6.4 9.7 0.00 0.00 0.00 49 1011.1
20260509161556 17 349 8.0 11.3 0.00 0.00 0.00 52 1011.2
20260509161050 17 353 9.7 12.9 0.00 0.00 0.00 51 1011.3
20260509160547 17 335 4.8 6.4 0.00 0.00 0.00 51 1011.2
20260509160042 17 292 4.8 6.4 0.00 0.00 0.00 46 1011.3
20260509155538 18 344 6.4 6.4 0.00 0.00 0.00 49 1011.1
20260509155035 18 16 4.8 4.8 0.00 0.00 0.00 47 1011.1
20260509154531 18 26 1.6 4.8 0.00 0.00 0.00 46 1010.7
20260509154029 18 307 4.8 4.8 0.00 0.00 0.00 48 1010.8
20260509153525 18 354 1.6 4.8 0.00 0.00 0.00 47 1010.7
20260509153022 18 76 0.0 1.6 0.00 0.00 0.00 44 1010.8
20260509152518 18 75 3.2 4.8 0.00 0.00 0.00 50 1011.0
20260509152015 18 118 0.0 3.2 0.00 0.00 0.00 46 1011.1
20260509151511 18 153 3.2 3.2 0.00 0.00 0.00 44 1011.2
20260509151010 18 279 1.6 6.4 0.00 0.00 0.00 44 1011.2
20260509150506 18 220 1.6 6.4 0.00 0.00 0.00 43 1011.1
20260509150005 18 167 1.6 4.8 0.00 0.00 0.00 43 1011.0
20260509145500 18 176 6.4 6.4 0.00 0.00 0.00 43 1011.2
20260509144955 18 153 3.2 4.8 0.00 0.00 0.00 45 1011.4
20260509144453 17 85 4.8 6.4 0.00 0.00 0.00 47 1011.2
20260509143950 17 47 0.0 3.2 0.00 0.00 0.00 46 1011.2
20260509143447 18 10 3.2 3.2 0.00 0.00 0.00 47 1011.2
20260509142943 17 346 4.8 4.8 0.00 0.00 0.00 48 1011.1
20260509142440 17 311 3.2 3.2 0.00 0.00 0.00 50 1011.3
20260509141935 17 355 0.0 4.8 0.00 0.00 0.00 50 1011.3
20260509141432 18 315 4.8 4.8 0.00 0.00 0.00 48 1011.3
20260509140929 17 168 1.6 3.2 0.00 0.00 0.00 50 1011.4
20260509140425 16 14 0.0 3.2 0.00 0.00 0.00 53 1011.6
20260509135924 17 31 1.6 1.6 0.00 0.00 0.00 52 1011.7
20260509135421 16 339 3.2 4.8 0.00 0.00 0.00 53 1011.7
20260509134918 16 339 3.2 4.8 0.00 0.00 0.00 53 1012.0
20260509134415 16 60 0.0 0.0 0.00 0.00 0.00 52 1011.7
20260509133913 16 91 0.0 0.0 0.00 0.00 0.00 58 1011.8
20260509133409 15 121 0.0 0.0 0.00 0.00 0.00 64 1011.9
20260509132908 15 121 0.0 0.0 0.00 0.00 0.00 68 1012.0
20260509132405 14 140 0.0 0.0 0.00 0.00 0.00 67 1012.0
20260509131902 14 140 0.0 0.0 0.00 0.00 0.00 67 1011.9
20260509131359 13 136 0.0 0.0 0.00 0.00 0.00 68 1011.8
20260509130856 13 131 0.0 0.0 0.00 0.00 0.00 68 1011.7
20260509130351 13 122 0.0 0.0 0.00 0.00 0.00 69 1011.8
20260509125848 12 117 0.0 0.0 0.00 0.00 0.00 70 1011.6
20260509125344 12 86 0.0 0.0 0.00 0.00 0.00 73 1011.8
20260509124841 11 4 0.0 0.0 0.00 0.00 0.00 77 1011.9
20260509124338 11 358 0.0 0.0 0.00 0.00 0.00 87 1011.9
20260509123836 11 133 0.0 0.0 0.00 0.00 0.00 89 1011.8
20260509123333 11 137 0.0 0.0 0.00 0.00 0.00 88 1011.9
20260509122828 10 137 0.0 0.0 0.00 0.00 0.00 88 1011.9
20260509122325 10 134 0.0 0.0 0.00 0.00 0.00 88 1012.0
20260509121822 10 133 0.0 0.0 0.00 0.00 0.00 87 1012.0
20260509121320 10 137 0.0 0.0 0.00 0.00 0.00 88 1012.0
20260509120818 10 139 0.0 0.0 0.00 0.00 0.00 89 1012.2
20260509120315 10 141 0.0 0.0 0.00 0.00 0.00 88 1012.2
20260509115814 10 140 0.0 0.0 0.00 0.00 0.00 90 1012.1
20260509115310 10 218 0.0 0.0 0.00 0.00 0.00 89 1012.0
20260509114808 10 247 0.0 0.0 0.00 0.00 0.00 88 1011.9
20260509114306 10 231 0.0 0.0 0.00 0.00 0.00 86 1011.9
20260509113805 9 100 0.0 0.0 0.00 0.00 0.00 86 1011.9
20260509113301 9 128 0.0 0.0 0.00 0.00 0.00 89 1011.9
20260509112758 9 305 0.0 0.0 0.00 0.00 0.00 89 1011.8
20260509112256 9 135 0.0 0.0 0.00 0.00 0.00 88 1011.9
20260509111753 8 132 0.0 0.0 0.00 0.00 0.00 88 1011.7
20260509111249 8 132 0.0 0.0 0.00 0.00 0.00 88 1011.7
20260509110747 8 120 0.0 0.0 0.00 0.00 0.00 89 1011.8
20260509110243 8 111 0.0 0.0 0.00 0.00 0.00 87 1011.7
20260509105741 8 107 0.0 0.0 0.00 0.00 0.00 87 1011.6
20260509105239 8 142 0.0 0.0 0.00 0.00 0.00 88 1011.6
20260509104735 8 172 0.0 0.0 0.00 0.00 0.00 87 1011.8
20260509104232 8 173 0.0 0.0 0.00 0.00 0.00 88 1011.5
20260509103731 8 166 0.0 0.0 0.00 0.00 0.00 88 1011.7
20260509103227 8 192 0.0 0.0 0.00 0.00 0.00 89 1011.7
20260509102726 8 100 0.0 0.0 0.00 0.00 0.00 88 1011.9
20260509102222 8 93 0.0 0.0 0.00 0.00 0.00 87 1011.8
20260509101719 8 134 0.0 0.0 0.00 0.00 0.00 87 1011.6
20260509101215 8 190 0.0 0.0 0.00 0.00 0.00 87 1011.6
20260509100713 8 195 0.0 0.0 0.00 0.00 0.00 87 1011.6
20260509100209 8 256 0.0 0.0 0.00 0.00 0.00 88 1011.6
20260509095707 8 149 0.0 0.0 0.00 0.00 0.00 89 1011.4
20260509095204 8 172 0.0 0.0 0.00 0.00 0.00 90 1011.6
20260509094700 8 162 0.0 0.0 0.00 0.00 0.00 90 1011.9
20260509094157 8 108 0.0 0.0 0.00 0.00 0.00 90 1011.6
20260509093656 8 65 0.0 0.0 0.00 0.00 0.00 90 1011.7
20260509093152 8 86 0.0 0.0 0.00 0.00 0.00 88 1011.8
20260509092650 8 175 0.0 0.0 0.00 0.00 0.00 87 1011.8
20260509092149 8 130 1.6 1.6 0.00 0.00 0.00 87 1012.0
20260509091646 8 279 0.0 0.0 0.00 0.00 0.00 89 1011.8
20260509091137 8 143 0.0 0.0 0.00 0.00 0.00 86 1011.8
20260509090635 8 131 0.0 0.0 0.00 0.00 0.00 87 1011.8
20260509090132 8 161 0.0 0.0 0.00 0.00 0.00 87 1011.6
20260509085629 8 162 0.0 0.0 0.00 0.00 0.00 89 1011.8
20260509085125 8 230 0.0 1.6 0.00 0.00 0.00 89 1011.7
20260509084623 8 99 0.0 0.0 0.00 0.00 0.00 89 1011.8
20260509084120 8 99 0.0 0.0 0.00 0.00 0.00 89 1011.8
20260509083617 8 176 0.0 0.0 0.00 0.00 0.00 89 1012.0
20260509083113 7 115 0.0 1.6 0.00 0.00 0.00 89 1011.9
20260509082611 7 164 0.0 0.0 0.00 0.00 0.00 88 1011.9
20260509082107 8 164 0.0 0.0 0.00 0.00 0.00 88 1012.0
20260509081605 7 165 0.0 0.0 0.00 0.00 0.00 87 1012.0
20260509081101 7 188 0.0 0.0 0.00 0.00 0.00 88 1012.2
20260509080600 7 171 0.0 0.0 0.00 0.00 0.00 89 1012.0
20260509080057 7 194 0.0 0.0 0.00 0.00 0.00 88 1012.1
20260509075555 7 198 0.0 0.0 0.00 0.00 0.00 88 1012.2
20260509075053 7 50 0.0 0.0 0.00 0.00 0.00 90 1012.2
20260509074549 7 8 0.0 0.0 0.00 0.00 0.00 89 1012.2
20260509074046 7 2 0.0 0.0 0.00 0.00 0.00 89 1012.4
20260509073542 7 330 0.0 0.0 0.00 0.00 0.00 88 1012.3
20260509073039 7 105 0.0 0.0 0.00 0.00 0.00 88 1012.2
20260509072535 7 229 0.0 0.0 0.00 0.00 0.00 89 1012.3
20260509072032 7 227 0.0 0.0 0.00 0.00 0.00 87 1012.5
20260509071529 7 182 0.0 0.0 0.00 0.00 0.00 87 1012.5
20260509071027 7 180 0.0 0.0 0.00 0.00 0.00 88 1012.4
20260509070524 7 198 0.0 0.0 0.00 0.00 0.00 89 1012.4
20260509070020 7 315 0.0 0.0 0.00 0.00 0.00 87 1012.4
20260509065515 7 110 0.0 0.0 0.00 0.00 0.00 86 1012.5
20260509065012 6 314 0.0 0.0 0.00 0.00 0.00 88 1012.5
20260509064510 6 311 0.0 0.0 0.00 0.00 0.00 88 1012.5
20260509064008 6 310 0.0 0.0 0.00 0.00 0.00 88 1012.6
20260509063502 7 88 0.0 0.0 0.00 0.00 0.00 88 1012.9
20260509063000 6 104 0.0 0.0 0.00 0.00 0.00 87 1012.5
20260509062457 6 150 0.0 0.0 0.00 0.00 0.00 88 1013.0
20260509061955 6 166 0.0 1.6 0.00 0.00 0.00 89 1012.9
20260509061452 6 233 0.0 0.0 0.00 0.00 0.00 88 1012.7
20260509060949 6 222 0.0 1.6 0.00 0.00 0.00 87 1012.6
20260509060446 6 102 1.6 1.6 0.00 0.00 0.00 86 1013.0
20260509055942 6 63 0.0 0.0 0.00 0.00 0.00 88 1013.0
20260509055437 6 92 0.0 0.0 0.00 0.00 0.00 87 1013.0
20260509054934 6 90 0.0 0.0 0.00 0.00 0.00 88 1013.0
20260509054430 6 333 0.0 0.0 0.00 0.00 0.00 88 1013.3
20260509053929 7 323 0.0 0.0 0.00 0.00 0.00 86 1013.2
20260509053426 7 131 0.0 0.0 0.00 0.00 0.00 86 1013.2
20260509052924 7 130 0.0 0.0 0.00 0.00 0.00 86 1013.1
20260509052421 7 130 0.0 0.0 0.00 0.00 0.00 86 1013.3
20260509051919 7 130 0.0 0.0 0.00 0.00 0.00 84 1013.3
20260509051417 7 135 0.0 0.0 0.00 0.00 0.00 83 1013.1
20260509050913 8 141 0.0 0.0 0.00 0.00 0.00 83 1013.3
20260509050410 8 109 0.0 0.0 0.00 0.00 0.00 81 1013.2
20260509045906 8 98 0.0 0.0 0.00 0.00 0.00 80 1013.1
20260509045403 8 93 0.0 0.0 0.00 0.00 0.00 84 1013.1
20260509044900 8 135 0.0 0.0 0.00 0.00 0.00 83 1013.0
20260509044358 8 235 0.0 0.0 0.00 0.00 0.00 82 1013.1
20260509043855 8 154 0.0 0.0 0.00 0.00 0.00 80 1013.0
20260509043350 8 115 1.6 1.6 0.00 0.00 0.00 77 1012.7
20260509042846 8 89 0.0 0.0 0.00 0.00 0.00 80 1013.2
20260509042343 8 85 0.0 0.0 0.00 0.00 0.00 82 1013.0
20260509041840 8 86 0.0 0.0 0.00 0.00 0.00 81 1013.1
20260509041336 8 92 0.0 0.0 0.00 0.00 0.00 81 1013.2
20260509040835 8 134 0.0 0.0 0.00 0.00 0.00 81 1013.2
20260509040332 8 137 0.0 0.0 0.00 0.00 0.00 81 1013.0
20260509035829 8 139 0.0 0.0 0.00 0.00 0.00 83 1013.0
20260509035326 8 139 0.0 0.0 0.00 0.00 0.00 82 1013.1
20260509034822 8 139 0.0 0.0 0.00 0.00 0.00 82 1012.9
20260509034320 8 140 0.0 0.0 0.00 0.00 0.00 81 1013.2
20260509033817 8 141 0.0 0.0 0.00 0.00 0.00 81 1013.3
20260509033314 8 142 0.0 1.6 0.00 0.00 0.00 80 1013.3
20260509032810 8 126 0.0 0.0 0.00 0.00 0.00 80 1013.2
20260509032308 8 122 0.0 0.0 0.00 0.00 0.00 81 1013.3
20260509031806 8 96 0.0 0.0 0.00 0.00 0.00 83 1013.5
20260509031303 8 77 0.0 0.0 0.00 0.00 0.00 82 1013.4
20260509030800 8 114 0.0 0.0 0.00 0.00 0.00 79 1013.5
20260509030258 8 127 3.2 3.2 0.00 0.00 0.00 76 1013.2
20260509025754 7 109 0.0 0.0 0.00 0.00 0.00 81 1013.4
20260509025250 7 59 0.0 0.0 0.00 0.00 0.00 82 1013.3
20260509024745 8 251 0.0 0.0 0.00 0.00 0.00 79 1013.5
20260509024242 8 134 0.0 0.0 0.00 0.00 0.00 77 1013.3
20260509023739 8 126 1.6 3.2 0.00 0.00 0.00 78 1013.2
20260509023236 7 96 1.6 3.2 0.00 0.00 0.00 80 1013.3
20260509022732 7 77 0.0 0.0 0.00 0.00 0.00 83 1013.4
20260509022230 8 53 0.0 1.6 0.00 0.00 0.00 79 1013.3
20260509021727 8 190 1.6 3.2 0.00 0.00 0.00 77 1013.3
20260509021224 8 183 1.6 1.6 0.00 0.00 0.00 78 1013.1
20260509020722 8 182 1.6 1.6 0.00 0.00 0.00 78 1013.3
20260509020219 8 80 3.2 3.2 0.00 0.00 0.00 75 1013.2
20260509015717 8 94 0.0 0.0 0.00 0.00 0.00 75 1013.2
20260509015215 8 69 0.0 1.6 0.00 0.00 0.00 76 1013.1
20260509014711 9 155 0.0 0.0 0.00 0.00 0.00 73 1013.1
20260509014208 8 162 0.0 0.0 0.00 0.00 0.00 72 1013.0
20260509013705 8 140 0.0 1.6 0.00 0.00 0.00 74 1013.1
20260509013200 9 297 0.0 1.6 0.00 0.00 0.00 73 1013.3
20260509012657 10 176 3.2 3.2 0.00 0.00 0.00 74 1013.4
20260509012154 10 121 0.0 4.8 0.00 0.00 0.00 69 1013.2
20260509011652 9 93 0.0 1.6 0.00 0.00 0.00 71 1013.1
20260509011149 10 152 0.0 0.0 0.00 0.00 0.00 69 1012.9
20260509010647 10 152 0.0 0.0 0.00 0.00 0.00 68 1013.1
20260509010143 10 161 0.0 0.0 0.00 0.00 0.00 66 1013.0
20260509005641 11 85 0.0 0.0 0.00 0.00 0.00 64 1012.7
20260509005137 11 132 0.0 0.0 0.00 0.00 0.00 63 1013.0
20260509004633 11 94 0.0 0.0 0.00 0.00 0.00 62 1013.0
20260509004130 11 111 0.0 0.0 0.00 0.00 0.00 60 1012.9
20260509003628 12 108 0.0 0.0 0.00 0.00 0.00 60 1013.0
20260509003125 13 104 1.6 3.2 0.00 0.00 0.00 53 1012.9
20260509002623 12 116 0.0 0.0 0.00 0.00 0.00 57 1012.9
20260509002120 13 141 0.0 0.0 0.00 0.00 0.00 53 1012.7
20260509001618 13 146 0.0 0.0 0.00 0.00 0.00 52 1013.0
20260509001113 13 227 1.6 1.6 0.00 0.00 0.00 51 1012.5
20260509000612 14 93 1.6 1.6 0.00 0.00 0.00 48 1012.6